SUPERVIEW NEO-2 03

Satellite information

Favourite Embed

Satellite Type and Status

PAYLOADIN ORBIT

Key statistics

Satellite SUPERVIEW NEO-2 03 at a glance.

Uptime

225

Days in orbit

Revolutions

≈ 15.2

Per day

Orbit

SSO

Sun Synchronous Orbit

Inclination

97.4

Latest

Satellite identification and parameters

Extended collection of information and parameters for SUPERVIEW NEO-2 03.

Object identification

Identified? True

Debris? False

Object name: SUPERVIEW NEO-2 03

International designator: 2024-218B

Object number (NORAD): 62079

Object ID (CCSDS): 62079

Country: PEOPLES REPUBLIC OF CHINA (PRC)

Current information (Y/N): Y

RCS size: LARGE

Orbital parameters

Period: 94.754 minutes

Inclination: 97.4397 deg

SMA: 6884.823 km

Apoapsis: 507.774 km

Periapsis: 505.601 km

RAAN: 195.0567 deg

Eccentricy: 0.0001578

Argument of periapsis: 87.9563 deg

Mean anomaly: 272.1852 deg

Mean motion: 15.19720178 rev/day

Mean motion (dot): 0.00000564 rev/day2

B* drag term: 0.00002956 1/REarth

Two-line elements (TLE)

Creation date: July 6, 2025, 11:06 p.m.

Reference frame: TEME

Reference center: EARTH

Epoch: July 6, 2025, 6:25 p.m. UTC

TLE line 0: 0 SUPERVIEW NEO-2 03

TLE line 1: 1 62079U 24218B 25187.76770681 .00000564 00000-0 29560-4 0 9997

TLE line 2: 2 62079 97.4397 195.0567 0001578 87.9563 272.1852 15.19720178 33988

Live tracking on map

Real-time ground track for satellite SUPERVIEW NEO-2 03.

In-orbit conjunctions

There are no conjunctions computed for SUPERVIEW NEO-2 03, at the moment. Check back to stay up to date, as we update our databases every day.

Go to all conjunctions

Associated space launch

Commercial Synthetic-aperture radar Earth observation satellites built by CAST for China Siwei Survey and Mapping Technology Co. Ltd.

SUPERVIEW NEO-2 03 was lifted into orbit during the mission ‘Long March 2C | SuperView Neo 2-03 & 04’, on board a Long March 2 space rocket.

The launch took place on Nov. 24, 2024, 11:39 p.m. from Launch Area 4 (SLS-2 / 603).

For more information about the launch, click the button.

Launch to space Long March 2C | SuperView Neo 2-03 & 04
Long March 2C | SuperView Neo 2-03 & 04

Agency: N/A

Status: Launch Successful

Launch date: Nov. 24, 2024, 11:39 p.m. UTC

Rocket: Long March 2

Launch pad: Launch Area 4 (SLS-2 / 603)

Location: Jiuquan Satellite Launch Center, People's Republic of China

...

Latest news about this satellite

News about space launch
Chang Zheng 12, ZhuQue-2E fly maiden missions; Hainan spaceport and mega constellations expand

In late November, two new Chinese rockets took their maiden flights within four days of… The post Chang Zheng 12, ZhuQue-2E fly maiden missions; Hainan spaceport and mega constellations expand appeared first on NASASpaceFlight.com.

News about space launch
China launches pair of SuperView Neo-2 radar satellites

HELSINKI — China launched a pair of radar satellites late Sunday for a state-owned firm building a 28-satellite remote sensing constellation. A Long March 2C rocket lifted off at 6:39 […] The post China launches pair of SuperView Neo-2 radar satellites a...

News about space launch
Launch Roundup: Falcon 9 launches continue, Rocket Lab to launch two Electrons, Russia to fly to ISS

Following the sixth flight of SpaceX’s Starship on Tuesday, four additional orbital launches are planned worldwide. Rocket Lab will launch an experimental hypersonic testbed payload using a modified Electron from Wallops. What’s more, a second Electron wi...


Newsletter sign-up

Weekly statistics, charts and insights to help you stay on top of the space industry.